Petersburg, AK

8:25 PM AKDT on April 25, 2018 (GMT -0800)
Johnson Petersburg

Weather History for PAPG - November, 2011

Change the Weather History Date:

Monday, November 28, 2011

  Actual Average Record
Temperature  
Mean Temperature 34 °F -  
Max Temperature 37 °F 36 °F 49 °F (1987)
Min Temperature 32 °F 29 °F 0 °F (2006)
Degree Days  
Heating Degree Days 30    
Moisture  
Dew Point 31 °F    
Average Humidity 90    
Maximum Humidity 100    
Minimum Humidity 81    
Precipitation  
Precipitation 0.00 in - - ()
Sea Level Pressure  
Sea Level Pressure 29.76 in    
Wind  
Wind Speed 4 mph (SSE)    
Max Wind Speed 10 mph    
Max Gust Speed 22 mph    
Visibility 6 miles    
Events      
Averages and records for this station are not official NWS values.
T = Trace of Precipitation, MM = Missing Value Source: NWS Daily Summary

Daily Weather History Graph

Daily Weather History Graph

Search for Another Location

Airport or City:

Astronomy

Nov. 28, 2011 Rise Set
Actual Time 7:58 AM AKST 3:20 PM AKST
Civil Twilight 7:11 AM AKST 4:07 PM AKST
Nautical Twilight 6:23 AM AKST 4:55 PM AKST
Astronomical Twilight 5:37 AM AKST 5:41 PM AKST
Moon 11:04 AM AKST (11/28) 7:28 PM AKST (11/28)
Length of Visible Light 8h 55m
Length of Day
7h 22m
Waxing Crescent, 17% of the Moon is Illuminated
Nov 28
Waxing Crescent
Dec 2
First Quarter
Dec 10
Full
Dec 17
Last Quarter
Dec 24
New

Hourly Weather History & Observations

Time (AKST) Temp. Windchill Dew Point Humidity Pressure Visibility Wind Dir Wind Speed Gust Speed Precip Events Conditions
12:16 AM 33.8 °F 25.8 °F 30.2 °F 87% 29.83 in 2.0 mi ESE 10.4 mph 21.9 mph N/A   Overcast
12:36 AM 33.8 °F 27.7 °F 30.2 °F 87% 29.82 in 2.5 mi East 6.9 mph - N/A   Overcast
12:56 AM 33.8 °F 26.4 °F 30.2 °F 87% 29.81 in 2.5 mi ESE 9.2 mph 16.1 mph N/A   Overcast
1:16 AM 33.8 °F 27.0 °F 30.2 °F 87% 29.80 in 2.5 mi East 8.1 mph - N/A   Overcast
1:36 AM 33.8 °F 28.6 °F 30.2 °F 87% 29.78 in 3.0 mi East 5.8 mph - N/A   Overcast
1:56 AM 33.8 °F - 30.2 °F 87% 29.78 in 3.0 mi Calm Calm - N/A   Overcast
2:16 AM 33.8 °F 28.6 °F 30.2 °F 87% 29.76 in 4.0 mi ESE 5.8 mph - N/A   Overcast
2:36 AM 33.8 °F 30.8 °F 30.2 °F 87% 29.75 in 5.0 mi ESE 3.5 mph - N/A   Overcast
2:56 AM 33.8 °F 30.8 °F 30.2 °F 87% 29.74 in 5.0 mi East 3.5 mph - N/A   Overcast
3:16 AM 33.8 °F 29.6 °F 30.2 °F 87% 29.72 in 5.0 mi NE 4.6 mph - N/A   Overcast
3:36 AM 35.6 °F - 32.0 °F 87% 29.71 in 6.0 mi Calm Calm - N/A   Overcast
3:56 AM 33.8 °F 30.8 °F 30.2 °F 87% 29.71 in 5.0 mi NNE 3.5 mph - N/A   Overcast
4:16 AM 35.6 °F 32.8 °F 32.0 °F 87% 29.70 in 5.0 mi ENE 3.5 mph - N/A   Overcast
4:36 AM 35.6 °F - 30.2 °F 81% 29.70 in 4.0 mi Calm Calm - N/A   Overcast
4:56 AM 33.8 °F 30.8 °F 30.2 °F 87% 29.69 in 4.0 mi NNE 3.5 mph - N/A   Overcast
5:16 AM 33.8 °F 30.8 °F 30.2 °F 87% 29.69 in 4.0 mi ENE 3.5 mph - N/A   Overcast
5:36 AM 33.8 °F 28.6 °F 30.2 °F 87% 29.68 in 4.0 mi ENE 5.8 mph - N/A   Overcast
5:56 AM 33.8 °F 28.6 °F 30.2 °F 87% 29.68 in 3.0 mi ENE 5.8 mph - N/A   Overcast
6:16 AM 33.8 °F 27.7 °F 30.2 °F 87% 29.68 in 3.0 mi ENE 6.9 mph - N/A   Overcast
6:36 AM 33.8 °F - 30.2 °F 87% 29.67 in 3.0 mi Calm Calm - N/A   Overcast
6:56 AM 33.8 °F - 30.2 °F 87% 29.67 in 4.0 mi Calm Calm - N/A   Overcast
7:16 AM 33.8 °F 29.6 °F 30.2 °F 87% 29.69 in 4.0 mi SW 4.6 mph - N/A   Overcast
7:36 AM 33.8 °F - 30.2 °F 87% 29.70 in 4.0 mi Calm Calm - N/A   Overcast
7:56 AM 32.0 °F 27.5 °F 30.2 °F 93% 29.71 in 3.0 mi WSW 4.6 mph - N/A   Overcast
8:16 AM 32.0 °F - 30.2 °F 93% 29.72 in 3.0 mi Calm Calm - N/A   Overcast
8:36 AM 32.0 °F 28.7 °F 30.2 °F 93% 29.72 in 3.0 mi WSW 3.5 mph - N/A   Overcast
8:56 AM 33.8 °F - 30.2 °F 87% 29.73 in 3.0 mi Calm Calm - N/A   Overcast
9:16 AM 33.8 °F - 30.2 °F 87% 29.74 in 4.0 mi Calm Calm - N/A   Overcast
9:36 AM 33.8 °F - 30.2 °F 87% 29.74 in 4.0 mi Calm Calm - N/A   Overcast
9:56 AM 33.8 °F - 30.2 °F 87% 29.75 in 4.0 mi Calm Calm - N/A   Overcast
10:16 AM 33.8 °F - 32.0 °F 93% 29.76 in 4.0 mi Calm Calm - N/A   Overcast
10:36 AM 33.8 °F 29.6 °F 32.0 °F 93% 29.77 in 4.0 mi SSW 4.6 mph - N/A   Overcast
10:56 AM 33.8 °F - 32.0 °F 93% 29.77 in 5.0 mi Calm Calm - N/A   Overcast
11:16 AM 33.8 °F 28.6 °F 30.2 °F 87% 29.78 in 7.0 mi SW 5.8 mph - N/A   Overcast
11:36 AM 33.8 °F 30.8 °F 32.0 °F 93% 29.78 in 7.0 mi South 3.5 mph - N/A   Overcast
11:56 AM 33.8 °F 30.8 °F 33.8 °F 100% 29.78 in 10.0 mi WSW 3.5 mph - N/A   Overcast
12:16 PM 33.8 °F - 32.0 °F 93% 29.78 in 10.0 mi Calm Calm - N/A   Overcast
12:36 PM 33.8 °F - 32.0 °F 93% 29.77 in 10.0 mi Calm Calm - N/A   Overcast
12:56 PM 33.8 °F 30.8 °F 32.0 °F 93% 29.78 in 10.0 mi WSW 3.5 mph - N/A   Overcast
1:16 PM 33.8 °F 30.8 °F 32.0 °F 93% 29.79 in 7.0 mi WSW 3.5 mph - N/A   Overcast
1:36 PM 33.8 °F - 32.0 °F 93% 29.78 in 7.0 mi Calm Calm - N/A   Overcast
1:56 PM 33.8 °F - 32.0 °F 93% 29.79 in 10.0 mi Calm Calm - N/A   Mostly Cloudy
2:16 PM 33.8 °F - 33.8 °F 100% 29.79 in 10.0 mi Calm Calm - N/A   Mostly Cloudy
2:36 PM 33.8 °F - 33.8 °F 100% 29.80 in 10.0 mi Calm Calm - N/A   Mostly Cloudy
2:56 PM 33.8 °F - 32.0 °F 93% 29.81 in 10.0 mi Calm Calm - N/A   Mostly Cloudy
3:16 PM 33.8 °F - 32.0 °F 93% 29.81 in 10.0 mi Calm Calm - N/A   Mostly Cloudy
3:36 PM 33.8 °F 30.8 °F 32.0 °F 93% 29.81 in 10.0 mi South 3.5 mph - N/A   Mostly Cloudy
3:56 PM 33.8 °F 30.8 °F 30.2 °F 87% 29.81 in 10.0 mi SSW 3.5 mph - N/A   Mostly Cloudy
4:16 PM 33.8 °F 28.6 °F 33.8 °F 100% 29.82 in 10.0 mi West 5.8 mph - N/A   Mostly Cloudy
4:36 PM 33.8 °F 29.6 °F 32.0 °F 93% 29.82 in 10.0 mi NW 4.6 mph - N/A   Mostly Cloudy
4:56 PM 33.8 °F - 33.8 °F 100% 29.82 in 10.0 mi Calm Calm - N/A   Overcast
5:16 PM 35.6 °F - 33.8 °F 93% 29.83 in 10.0 mi Calm Calm - N/A   Overcast
5:36 PM 37.4 °F 32.8 °F 33.8 °F 87% 29.83 in 10.0 mi WSW 5.8 mph - N/A   Overcast
5:56 PM 35.6 °F 31.7 °F 33.8 °F 93% 29.85 in 3.0 mi SW 4.6 mph - N/A   Overcast
6:16 PM 35.6 °F 31.7 °F 32.0 °F 87% 29.86 in 3.0 mi West 4.6 mph - N/A   Overcast
6:36 PM 35.6 °F - 33.8 °F 93% 29.87 in 3.0 mi Calm Calm - N/A   Overcast
6:56 PM 33.8 °F 30.8 °F 33.8 °F 100% 29.88 in 5.0 mi West 3.5 mph - N/A   Overcast
7:16 PM 33.8 °F - 32.0 °F 93% 29.89 in 5.0 mi Calm Calm - N/A   Overcast
7:36 PM 35.6 °F 31.7 °F 33.8 °F 93% 29.90 in 5.0 mi West 4.6 mph - N/A   Overcast
8:16 PM 35.6 °F 32.8 °F 33.8 °F 93% 29.91 in 5.0 mi SSE 3.5 mph - N/A   Overcast
8:36 PM 35.6 °F - 33.8 °F 93% 29.91 in 5.0 mi Calm Calm - N/A   Overcast
8:56 PM 33.8 °F 29.6 °F 32.0 °F 93% 29.92 in 5.0 mi SW 4.6 mph - N/A   Overcast
9:16 PM 35.6 °F 32.8 °F 33.8 °F 93% 29.93 in 5.0 mi South 3.5 mph - N/A   Overcast
9:36 PM 35.6 °F - 33.8 °F 93% 29.94 in 5.0 mi Calm Calm - N/A   Overcast
9:56 PM 33.8 °F - 32.0 °F 93% 29.95 in 5.0 mi Calm Calm - N/A   Overcast
10:16 PM 33.8 °F - 32.0 °F 93% 29.95 in 10.0 mi Calm Calm - N/A   Overcast
10:36 PM 33.8 °F 30.8 °F 32.0 °F 93% 29.96 in 10.0 mi SSW 3.5 mph - N/A   Overcast
10:56 PM 33.8 °F - 32.0 °F 93% 29.96 in 10.0 mi Calm Calm - N/A   Overcast
11:16 PM 33.8 °F - 33.8 °F 100% 29.97 in 10.0 mi Calm Calm - N/A   Overcast
11:36 PM 33.8 °F - 33.8 °F 100% 29.97 in 9.0 mi Calm Calm - N/A   Overcast
11:56 PM 33.8 °F 30.8 °F 32.0 °F 93% 29.97 in 10.0 mi SSW 3.5 mph - N/A   Overcast